Probability
0 0 0 0 0 0 0 0 0 0 0 0 0 0 0 0 0 0 0 0 0 0 0 0 0 0 0 0 0 0 0 0 0 0 0 0 0 0 0 0 0 0 0
0 0 0 0 0 0 0 0 0 0 0 0 0 0 0 0 0 0 0 0 0 0 0 0 0 0 0 0 0 0 0 0 0 0 0 0 0 0 0 0 0 0 0
0 0 0 0 0 0 0 0 0 0 0 0 0 0 0 0 0 0 0 0 0 0 0 0 0 0 0 0 0 0 0 0 0 0 0 0 0 0 0 0 0 0 0
0 0 0 0 0 0 0 0 0 0 0 0 0 0 0 0 0 0 0 0 0 0 0 0 0 0 0 0 0 0 0 0 0 0 0 0 0 0 0 0 0 0 0
0 0 0 0 0 0 0 0 0 0 0 0 0 0 0 0 0 0 0 0 0 0 0 0 0 0 0 0 0 0 0 0 0 0 0 0 0 0 0 0 0 0 0
0 0 0 0 0 0 0 0 0 0 0 0 0 0 0 0 0 0 0 0 0 0 0 0 0 0 0 0 0 0 0 0 0 0 0 0 0 0 0 0 0 0 0
0 0 0 0 0 0 0 0 0 0 0 0 0 0 0 0 0 0 0 0 0 0 0 0 0 0 0 0 0 0 0 0 0 0 0 0 0 0 0 0 0 0 0
0 0 0 0 0 0 0 0 0 0 0 0 0 0 0 0 0 0 0 0 0 0 0 0 0 0 0 0 0 0 0 0 0 0 0 0 0 0 0 0 0 0 0
0 0 0 0 0 0 0 0 0 0 0 0 0 0 0 0 0 0 0 0 0 0 0 0 0 0 0 0 0 0 0 0 0 0 0 0 0 0 0 0 0 0 0
0 0 0 0 0 0 0 0 0 0 0 0 0 0 0 0 0 0 0 0 0 0 0 0 0 0 0 0 0 0 0 0 0 0 0 0 0 0 0 0 0 0 0
0 0 0 0 0 0 0 0 0 0 0 0 0 0 0 0 0 0 0 0 0 0 0 0 0 0 0 0 0 0 0 0 0 0 0 0 0 0 0 0 0 0 0
0 0 0 0 0 0 0 0 0 0 0 0 0 0 0 0 0 0 0 0 0 0 0 0 0 0 0 0 0 0 0 0 0 0 0 0 0 0 0 0 0 0 0
0 0 0 0 0 0 0 0 0 0 0 0 0 0 0 0 0 0 0 0 0 0 0 0 0 0 0 0 0 0 0 0 0 0 0 0 0 0 0 0 0 0 0
0 0 0 0 0 0 0 0 0 0 0 0 0 0 0 0 0 0 0 0 0 0 0 0 0 0 0 0 0 0 0 0 0 0 0 0 0 0 0 0 0 0 0
0 0 0 0 0 0 0 0 0 0 0 0 0 0 0 0 0 0 0 0 0 0 0 0 0 0 0 0 0 0 0 0 0 0 0 0 0 0 0 0 0 0 0
0 0 0 0 0 0 0 0 0 0 0 0 0 0 0 0 0 0 0 0 0 0 0 0 0 0 0 0 0 0 0 0 0 0 0 0 0 0 0 0 0 0 0
0 0 0 0 0 0 0 0 0 0 0 0 0 0 0 0 0 0 0 0 0 0 0 0 0 0 0 0 0 0 0 0 0 0 0 0 0 0 0 0 0 0 0
0 0 0 0 0 0 0 0 0 0 0 0 0 0 0 0 0 0 0 0 0 0 0 0 0 0 0 0 0 0 0 0 0 0 0 0 0 0 0 0 0 0 0
0 0 0 0 0 0 0 0 0 0 0 0 0 0 0 0 0 0 0 0 0 0 0 0 0 0 0 0 0 0 0 0 0 0 0 0 0 0 0 0 0 0 0
0 0 0 0 0 0 0 0 0 0 0 0 0 0 0 0 0 0 0 0 0 0 0 0 0 0 0 0 0 0 0 0 0 0 0 0 0 0 0 0 0 0 0
0 0 0 0 0 0 0 0 0 0 0 0 0 0 0 0 0 0 0 0 0 0 0 0 0 0 0 0 0 0 0 0 0 0 0 0 0 0 0 0 0 0 0
0 0 0 0 0 0 0 0 0 0 0 0 0 0 0 0 0 0 0 0 0 0 0 0 0 0 0 0 0 0 0 0 0 0 0 0 0 0 0 0 0 0 0
0 0 0 0 0 0 0 0 0 0 0 0 0 0 0 0 0 0 0 0 0 0 0 0 0 0 0 0 0 0 0 0 0 0 0 0 0 0 0 0 0 0 0
0 0 0 0 0 0 0 0 0 0 0 0 0 0 0 0 0 0 0 0 0 0 0 0 0 0 0 0 0 0 0 0 0 0 0 0 0 0 0 0 0 0 0
0 0 0 0 0 0 0 0 0 0 0 0 0 0 0 0 0 0 0 0 0 0 0 0 0 0 0 0 0 0 0 0 0 0 0 0 0 0 0 0 0 0 0
0 0 0 0 0 0 0 0 0 0 0 0 0 0 0 0 0 0 0 0 0 0 0 0 0 0 0 0 0 0 0 0 0 0 0 0 0 0 0 0 0 0 0
Wind_Speed
4 3 3 3 3 3 3 3 4 5 5 6 6 7 7 7 7 7 5 5 8 10 11 12 12 12 13 13 13 13 13 13 13 14 14 14 14 14 14 15 15 15 16
4 3 3 3 3 3 3 4 5 5 5 5 7 7 8 8 8 8 7 5 5 7 9 9 10 10 11 12 12 13 13 14 14 14 14 15 15 15 15 15 16 16 16
4 4 3 3 2 3 3 3 4 4 4 5 7 7 7 8 8 8 7 5 4 2 4 7 8 9 10 12 12 13 13 14 15 15 15 15 16 16 16 16 17 17 17
5 4 3 2 2 2 2 3 4 4 5 5 6 6 6 6 8 7 6 4 3 3 2 4 7 8 10 11 12 13 14 14 15 16 16 16 16 17 17 18 18 18 18
4 4 2 2 2 2 2 2 3 4 5 5 6 7 7 6 6 5 4 3 3 3 3 2 4 6 9 11 13 14 15 16 16 17 17 17 18 18 18 19 19 19 19
4 4 2 2 2 2 2 2 2 3 4 5 6 7 7 6 4 4 3 3 2 3 4 5 5 5 8 11 13 14 16 17 17 18 18 18 19 19 20 20 20 21 21
4 3 2 2 2 1 1 2 2 3 3 4 5 5 5 4 4 3 3 4 4 4 5 6 6 6 6 11 12 14 16 17 18 19 19 19 20 20 21 21 21 22 22
4 3 4 3 2 2 2 1 1 2 2 2 4 5 5 3 1 3 5 5 6 5 6 7 8 9 9 8 9 14 16 17 19 20 20 20 21 21 22 22 22 22 23
5 5 4 3 3 2 1 1 1 2 3 2 2 3 4 5 6 4 5 5 6 6 7 8 10 10 10 9 9 11 15 18 20 20 21 21 21 22 22 22 23 23 23
6 5 5 4 3 2 2 1 1 2 3 3 2 3 4 4 5 6 5 5 7 8 9 8 9 10 10 9 10 14 15 18 20 21 22 22 22 23 23 23 23 23 24
6 5 5 4 4 2 2 2 2 2 3 3 3 3 4 5 7 6 8 8 7 7 8 9 9 9 10 9 9 11 16 18 20 21 22 22 23 24 24 24 24 24 25
5 6 5 4 4 3 2 2 3 3 3 4 4 4 5 5 5 6 9 11 11 9 10 9 8 8 8 9 11 14 17 19 20 21 21 22 23 23 24 24 25 25 25
5 7 6 5 4 3 3 3 3 4 5 5 5 5 5 6 6 7 9 11 12 11 9 7 7 7 8 9 9 14 17 19 20 20 21 22 23 23 24 24 25 25 26
6 7 6 5 4 4 4 4 4 4 5 6 6 7 6 6 6 7 8 9 11 10 9 11 8 8 7 8 11 16 14 19 19 20 22 22 22 23 23 24 25 25 26
5 7 6 6 5 5 4 4 4 5 5 6 7 7 7 7 7 7 7 8 8 10 11 10 7 7 8 10 13 14 14 18 21 22 22 22 22 23 23 24 24 25 25
7 7 6 6 5 5 5 5 5 6 7 7 6 8 9 7 7 7 8 8 9 11 13 9 11 12 13 11 15 16 15 21 21 21 21 22 22 23 24 24 24 24 25
7 7 7 6 6 6 6 6 7 7 8 9 8 9 10 10 8 8 8 9 9 10 14 13 11 12 15 15 14 14 14 14 13 20 21 22 23 24 24 24 24 24 24
7 7 6 6 6 6 7 7 8 8 9 10 10 10 11 9 11 10 9 11 10 11 13 17 13 12 15 15 15 15 13 12 13 18 22 23 24 24 24 24 24 24 24
7 7 7 7 7 7 7 8 9 9 10 11 11 12 12 12 13 11 11 11 10 11 11 13 14 12 12 12 14 14 15 13 13 14 19 21 22 22 23 24 24 23 22
8 7 7 7 7 7 7 8 9 10 11 11 12 12 13 13 13 13 12 13 12 12 12 12 13 12 12 13 12 11 12 11 11 12 15 16 19 22 22 22 22 21 21
7 7 7 7 7 7 7 8 8 10 11 12 13 13 13 15 17 15 13 13 13 12 11 12 13 12 12 11 10 10 12 12 12 11 11 11 12 11 13 16 18 18 19
7 7 7 8 8 7 9 13 12 11 12 13 14 14 14 15 17 20 22 21 20 16 14 13 13 13 15 14 12 11 11 12 12 8 10 11 11 12 11 11 15 19 20
7 8 8 8 10 10 11 14 15 13 13 14 14 13 11 11 16 14 17 20 20 22 22 17 16 16 16 14 14 14 13 13 13 11 11 12 11 12 11 11 18 19 20
7 7 8 9 9 10 12 15 16 14 14 14 14 14 14 14 13 14 14 15 15 15 17 15 14 15 16 15 14 14 14 13 12 10 10 11 11 11 11 10 15 16 17
7 7 7 9 10 11 12 14 15 11 11 14 13 13 14 15 17 19 16 16 16 15 16 21 22 22 24 23 18 10 9 10 11 10 8 8 9 10 10 10 9 12 13
7 7 8 9 10 12 12 14 15 10 11 11 11 12 15 16 19 20 16 15 16 15 14 14 15 17 16 15 17 12 9 9 10 8 5 6 8 8 8 7 7 8 8
Wind_Direction
213 218 227 230 240 256 264 273 281 293 295 299 296 298 300 300 297 297 296 294 303 308 309 311 312 311 311 311 311 312 313 312 311 308 305 300 296 292 288 285 284 282 276
217 222 228 234 244 255 269 277 285 291 293 298 298 296 296 296 294 297 299 297 286 305 314 318 320 321 322 321 320 319 318 317 315 312 310 307 303 298 293 289 286 284 283
219 222 237 241 248 256 262 271 277 282 292 292 292 298 299 298 298 299 302 302 300 298 320 328 332 333 332 329 325 321 318 316 314 311 308 306 305 301 297 292 289 286 283
210 221 232 242 248 254 263 274 285 287 290 297 302 304 299 298 296 303 299 296 303 314 319 348 338 337 336 330 325 321 319 315 312 309 306 305 303 300 297 294 291 288 285
201 210 220 225 223 244 261 273 283 301 305 309 307 303 299 299 302 295 290 296 301 307 314 329 316 321 328 327 324 320 315 311 308 306 304 302 300 297 295 292 290 288 285
187 195 194 203 213 227 248 266 285 302 310 317 306 297 295 298 290 286 282 278 278 296 308 315 307 308 310 315 316 314 312 308 306 303 301 299 297 294 292 290 287 285 283
171 175 177 182 196 214 245 282 295 298 311 327 306 306 294 273 284 273 276 287 288 296 301 309 311 314 308 308 306 310 311 308 305 302 300 298 296 293 290 288 286 284 282
159 161 173 170 172 180 192 222 289 298 315 332 324 316 314 288 208 274 292 290 292 296 295 303 308 309 307 306 307 306 307 308 306 303 301 298 295 293 290 288 286 284 282
154 156 162 163 163 182 181 199 262 289 304 311 320 315 314 316 321 283 277 287 291 294 298 304 303 304 303 301 302 305 309 309 307 304 301 299 297 295 292 289 287 285 284
153 155 157 160 162 171 180 188 240 272 283 291 287 268 280 297 298 305 288 278 289 294 296 299 300 300 299 299 298 300 306 308 307 305 303 302 299 297 295 293 291 289 287
156 158 162 165 167 175 185 201 230 252 268 280 286 284 274 270 262 274 292 301 297 290 293 295 293 294 296 296 297 303 309 307 306 306 305 303 301 299 296 295 293 291 289
162 166 170 173 177 182 194 217 239 251 263 269 271 269 273 275 278 275 284 296 300 302 300 291 286 289 293 296 296 303 304 303 303 302 303 302 301 299 298 296 293 291 288
174 175 180 184 186 192 206 225 241 255 259 265 268 271 269 268 276 278 282 290 295 298 294 283 279 285 290 293 296 304 300 298 298 300 301 300 299 297 296 294 292 290 288
176 173 182 190 196 204 214 228 247 253 260 262 266 268 268 269 269 269 275 289 295 292 286 289 292 286 290 295 298 304 295 296 297 299 299 298 297 296 294 293 291 289 287
168 177 186 195 203 213 226 237 249 256 261 264 267 268 267 269 268 268 269 270 278 290 295 296 295 295 296 295 298 297 296 297 299 298 296 296 295 294 293 292 290 288 286
175 182 192 202 212 221 230 240 253 259 263 265 265 268 269 270 270 267 265 265 264 272 281 286 292 292 295 292 293 294 293 295 292 292 293 294 294 294 293 291 290 288 286
183 192 199 210 220 229 237 244 251 260 264 268 265 266 270 273 273 271 268 267 266 268 276 284 287 292 293 292 293 292 292 293 292 292 294 295 295 294 292 291 290 288 287
191 198 205 215 225 235 243 251 258 261 264 269 271 271 272 273 271 272 270 269 270 271 276 286 290 292 292 293 292 291 290 289 289 292 294 294 293 292 292 291 290 289 288
195 201 210 221 230 238 247 255 262 265 267 269 271 272 273 274 274 273 273 273 273 274 275 280 286 289 289 290 291 288 288 288 290 290 291 291 292 292 292 291 290 289 289
200 209 218 227 236 243 249 256 262 266 269 270 270 269 269 270 272 275 276 276 276 276 275 277 281 285 287 289 287 288 290 289 289 292 292 291 290 291 290 289 289 288 288
207 215 224 233 240 244 245 250 258 261 266 270 270 268 267 266 269 272 273 275 275 273 275 276 279 284 285 288 287 289 289 292 291 292 290 290 293 292 293 291 288 286 286
211 218 229 239 247 248 251 258 267 271 271 272 274 274 272 270 270 271 273 275 275 276 278 277 279 280 284 287 288 287 289 290 292 291 291 292 293 289 288 286 288 290 288
217 227 237 245 253 256 257 265 269 275 276 276 276 278 277 275 277 277 279 280 278 275 273 275 276 279 284 286 287 286 283 282 285 292 293 288 288 287 288 289 291 289 289
224 235 245 252 260 263 264 270 276 276 276 275 275 276 278 279 279 281 281 278 276 274 272 271 271 275 278 281 280 281 282 284 285 282 281 285 290 291 296 295 294 294 296
234 243 252 258 263 268 267 273 279 281 276 277 276 275 275 277 280 283 282 281 281 279 275 271 271 274 277 278 280 282 283 286 288 289 288 284 292 300 299 293 293 298 301
242 251 256 260 265 271 273 275 278 277 278 280 279 276 274 275 280 283 283 283 283 285 285 285 281 279 278 279 280 275 278 281 285 290 289 291 297 306 299 293 304 309 303